Content
SEND FEEDBACK

Daily
Averages
Monthly
Summary
United States of America

SAN FRANCISCO, CALIFORNIA


Home > North America > United States > California
Elevation: 128 feet     Latitude: 37 46N     Longitude: 122 26W

WEATHER
 
SELECT A DAY
Number of Records: 184,858;   Date Range: 1/1/95 - 7/29/14
 
SHARE

PRINT THIS DATA

[ ← Previous Day ]
WEATHER ALMANAC - JANUARY 18, 2013
[ Next Day → ]
[ °C ]   °F
Weather ElementAverageHighLow
Temperature49.4 °F60.1 °F (1:56 pm)39.9 °F (3:56 am)
Dewpoint36.4 °F41 °F (12:56 pm)34 °F (1:56 am)
Humidity62.3 %83 % (5:56 am)41 % (1:56 pm)
Barometer30.18 in30.24 in (9:56 am)30.14 in (3:56 pm)
Wind Speed1.6 mph5.8 mph (9:56 am)
Weather ElementAverage
Visibility9.7 mi
Wind DirectionNE (50 °)

Weather ElementTotal
Precipitation---
Heating Degree Days15 (Base 65)
Averaged from 23 records on January 18, 2013
WEATHER CONDITIONS BREAKOUT
WIND DIRECTION BREAKOUT
WEATHER BY HOUR - JANUARY 18, 2013
[ °C ]   °F
Local TimeTemperatureDewpointHumidityBarometerVisibilityWind DirectionWind SpeedGust SpeedPrecipitationEventsConditions
1:56 AM42.1 °F34.0 °F73 %30.19 in10.0 miCalmClear
2:56 AM42.1 °F34.0 °F73 %30.19 in10.0 miCalmClear
3:56 AM39.9 °F34.0 °F79 %30.19 in10.0 miCalmClear
4:56 AM41.0 °F35.1 °F79 %30.18 in8.0 miCalmClear
5:56 AM39.9 °F35.1 °F83 %30.19 in9.0 miSouth (190°)4.6 mphClear
6:56 AM42.1 °F35.1 °F76 %30.19 in10.0 miCalmClear
7:56 AM42.1 °F35.1 °F76 %30.20 in10.0 miCalmClear
8:56 AM46.0 °F36.0 °F68 %30.23 in10.0 miCalmClear
9:56 AM48.0 °F39.9 °F74 %30.24 in9.0 miEast (100°)5.8 mphClear
10:56 AM53.1 °F37.9 °F57 %30.23 in9.0 miSSE (150°)4.6 mphClear
11:56 AM57.0 °F35.1 °F44 %30.20 in9.0 miSE (140°)3.5 mphPartly Cloudy
12:56 PM55.9 °F41.0 °F57 %30.17 in9.0 miEast (100°)3.5 mphPartly Cloudy
1:56 PM60.1 °F36.0 °F41 %30.16 in10.0 miSSE (160°)4.6 mphPartly Cloudy
2:56 PM59.0 °F39.9 °F49 %30.15 in10.0 miVariable3.5 mphPartly Cloudy
3:56 PM57.9 °F39.9 °F51 %30.14 in10.0 miCalmScattered Clouds
4:56 PM55.0 °F39.0 °F55 %30.14 in10.0 miCalmScattered Clouds
5:56 PM54.0 °F37.9 °F55 %30.15 in10.0 miCalmScattered Clouds
6:56 PM54.0 °F36.0 °F51 %30.16 in10.0 miSSE (160°)3.5 mphPartly Cloudy
7:56 PM52.0 °F36.0 °F54 %30.16 in10.0 miSSE (150°)3.5 mphPartly Cloudy
8:56 PM52.0 °F34.0 °F50 %30.17 in10.0 miCalmClear
9:56 PM51.1 °F36.0 °F56 %30.17 in10.0 miCalmClear
10:56 PM48.0 °F37.0 °F66 %30.18 in10.0 miCalmClear
11:56 PM45.0 °F34.0 °F65 %30.18 in10.0 miCalmClear
Hourly data recorded from KSFO, located miles away from San Francisco, California







STORIES FROM OUR PARTNERS